Regional Weather Roundup
Issued by NWS

Home | Current Version | Previous Version | Graphics & Text | Print | Product List | Glossary On
Versions: 1 2 3 4 5 6 7 8 9 10 11 12 13 14 15 16 17 18 19 20 21 22 23 24 25 26 27 28 29 30 31 32 33 34 35 36 37 38 39 40 41 42 43 44 45 46 47 48 49 50
000
ASUS43 KDMX 071007
RWRIA

WEATHER ROUNDUP FOR IOWA
NATIONAL WEATHER SERVICE DES MOINES IA
500 AM CDT TUE JUL 07 2015

NOTE: "FAIR" INDICATES FEW OR NO CLOUDS BELOW 12,000 FEET WITH NO
SIGNIFICANT WEATHER AND/OR OBSTRUCTIONS TO VISIBILITY.

* - THESE STATIONS ARE NOT NWS STATIONS...THUS NOT UNDER NWS
QUALITY CONTROL.  THEY ALSO DO NOT REPORT WEATHER SUCH
AS PRECIPITATION OR FOG.

IAZ001>003-012>014-020>022-031>034-043>046-071100-
   NORTHWEST IOWA

CITY           SKY/WX    TMP DP  RH WIND       PRES   REMARKS
CARROLL *      CLEAR     54  50  87 N10       30.10R
CHEROKEE *     CLEAR     52  50  93 N3        30.13R
DENISON *      CLEAR     54  50  87 N6        30.09S
LE MARS *      CLEAR     52  50  93 N5        30.15S
ORANGE CITY *  CLEAR     52  48  87 N6        30.14F
SHELDON *      CLEAR     48  48 100 N9        30.13S
SIOUX CITY     CLEAR     55  49  80 N8        30.14R
SPENCER        CLEAR     49  45  86 N7        30.12F
STORM LAKE *   CLEAR     52  48  87 N10       30.12R
$$

IAZ055>058-069>071-079>083-090>094-071100-
   SOUTHWEST IOWA

CITY           SKY/WX    TMP DP  RH WIND       PRES   REMARKS
ATLANTIC *     CLEAR     54  50  87 N7        30.09R
AUDUBON *      CLEAR     54  48  82 N8        30.10R
CLARINDA *     CLEAR     59  54  82 N12       30.08R
COUNCIL BLFS * CLEAR     55  52  88 N9        30.10R
CRESTON *      CLEAR     57  52  82 N13G20    30.06R
HARLAN  *      CLEAR     54  54 100 N8        30.13R
LAMONI         PTCLDY    61  56  83 N14       30.03R
RED OAK *      CLEAR     55  52  88 N8        30.09R
SHENANDOAH *     N/A     57  54  88 VRB6      30.09R
$$

IAZ047>049-059>061-072>074-084-071100-
   CENTRAL IOWA

CITY           SKY/WX    TMP DP  RH WIND       PRES   REMARKS
AMES           CLEAR     56  51  84 N13       30.05R
ANKENY *       CLEAR     57  54  88 N9G15     30.04R
CHARITON *     CLOUDY    61  57  88 N10       30.02R
DES MOINES     CLEAR     60  52  74 N12       30.03R
GRINNELL*      CLEAR     59  55  88 N10       30.02R FOG
KNOXVILLE *    MOCLDY    61  55  82 N10       30.01R
MARSHALLTOWN   CLEAR     56  53  90 N12       30.02R
PELLA *          N/A     59  59 100 N7        30.03R FOG
PERRY *          N/A     55  52  88 N7        30.07R
$$

IAZ004>006-015-016-023>025-035-036-071100-
   NORTH CENTRAL IOWA

CITY           SKY/WX    TMP DP  RH WIND       PRES   REMARKS
ALGONA *       CLEAR     52  48  87 N10       30.10S
CLARION *      CLEAR     52  50  93 N7G13     30.07R
ESTHERVILLE    CLEAR     48  46  93 NW8       30.12R
FORT DODGE *   CLEAR     52  46  82 N6        30.09R
MASON CITY     CLEAR     52  49  89 N10       30.08R
FOREST CITY *  CLEAR     50  48  93 N9        30.08R
IOWA FALLS *     N/A     54  52  94 NW8       30.06R
$$

IAZ007>011-017>019-026>030-037>042-050>054-066-071100-
   NORTHEAST IOWA

CITY           SKY/WX    TMP DP  RH WIND       PRES   REMARKS
CEDAR RAPIDS   CLEAR     59  58  96 N9        29.98R FOG
CHARLES CITY * PTCLDY    54  54 100 N10       30.05R
CLINTON *      PTCLDY    61  55  82 N7        29.96R
DECORAH *        N/A    N/A N/A N/A MISG        N/A
DUBUQUE        PTCLDY    58  55  90 N10       29.96R FOG
MONTICELLO *   CLEAR     59  59 100 NW9       29.98R FOG
OELWEIN *        N/A     57  54  88 N12       30.02R
WATERLOO       CLEAR     56  51  84 N13       30.01R
$$

IAZ064-065-067-068-078-071100-
   EAST CENTRAL IOWA

CITY           SKY/WX    TMP DP  RH WIND       PRES   REMARKS
DAVENPORT      PTCLDY    60  57  89 N6        29.95R FOG
IOWA CITY      PTCLDY    63  57  81 N12       29.98R HAZE
MT. PLEASANT * CLOUDY    64  59  82 N10       29.96R HAZE
MUSCATINE *    CLOUDY    63  57  82 N9        29.96R HAZE
QUAD CITIES    CLOUDY    64  57  78 N9        29.93R HAZE
$$

IAZ062-063-075>077-085>089-095>099-071100-
   SOUTHEAST IOWA

CITY           SKY/WX    TMP DP  RH WIND       PRES   REMARKS
BURLINGTON     CLOUDY    63  61  93 N10       29.94R FOG
FAIRFIELD *    CLOUDY    63  57  82 N10       29.98R HAZE
FORT MADISON * CLOUDY    63  61  94 N9        29.95R FOG
KEOKUK *       CLOUDY    64  63  94 N9G17     29.94R FOG
OSKALOOSA *    CLOUDY    59  57  94 N6        30.01R FOG
CENTERVILLE *  MOCLDY    63  59  88 N10       30.01S
OTTUMWA        MOCLDY    61  59  93 NW10      29.98R FOG
WASHINGTON *   CLOUDY    63  59  88 N10       29.99R FOG
$$

ABBREVIATIONS USED IN REMARKS
   TC - TEMPERATURES IN CELSIUS
  WCI - WIND CHILL INDEX
   HX - HEAT INDEX
  VSB - VISIBILITY
$$




USA.gov is the U.S. government's official web portal to all federal, state and local government web resources and services.